Staples, MN

8:53 PM CDT on April 26, 2018 (GMT -0500)
Staples Municipal

Weather History for KSAZ - September, 2013

Change the Weather History Date:

Tuesday, September 10, 2013

  Actual Average Record
Temperature  
Mean Temperature 68 °F -  
Max Temperature 78 °F 70 °F 89 °F (1998)
Min Temperature 59 °F 49 °F 41 °F (2006)
Cooling Degree Days 4    
Growing Degree Days 18 (Base 50)    
Moisture  
Dew Point 60 °F    
Average Humidity 83    
Maximum Humidity 100    
Minimum Humidity 53    
Precipitation  
Precipitation 0.00 in - - ()
Sea Level Pressure  
Sea Level Pressure 29.90 in    
Wind  
Wind Speed 7 mph (WSW)    
Max Wind Speed 18 mph    
Max Gust Speed 21 mph    
Visibility 10 miles    
Events Rain    
Averages and records for this station are not official NWS values.
T = Trace of Precipitation, MM = Missing Value Source: NWS Daily Summary

Daily Weather History Graph

Daily Weather History Graph

Search for Another Location

Airport or City:

Astronomy

Sep. 10, 2013 Rise Set
Actual Time 6:51 AM CDT 7:40 PM CDT
Civil Twilight 6:20 AM CDT 8:10 PM CDT
Nautical Twilight 5:44 AM CDT 8:46 PM CDT
Astronomical Twilight 5:06 AM CDT 9:24 PM CDT
Moon 12:38 PM CDT (9/10) 10:22 PM CDT (9/10)
Length of Visible Light 13h 49m
Length of Day
12h 48m
Waxing Crescent, 28% of the Moon is Illuminated
Sep 10
Waxing Crescent
Sep 12
First Quarter
Sep 19
Full
Sep 26
Last Quarter
Oct 4
New

Hourly Weather History & Observations

Time (CDT) Temp. Dew Point Humidity Pressure Visibility Wind Dir Wind Speed Gust Speed Precip Events Conditions
12:14 AM 66.2 °F 64.4 °F 94% 29.78 in 10.0 mi NW 11.5 mph - N/A   Overcast
12:33 AM 66.2 °F 62.6 °F 88% 29.78 in 10.0 mi WNW 8.1 mph - N/A   Mostly Cloudy
12:53 AM 64.4 °F 62.6 °F 94% 29.79 in 10.0 mi West 9.2 mph - N/A   Overcast
1:14 AM 64.4 °F 62.6 °F 94% 29.79 in 10.0 mi WNW 6.9 mph - N/A   Overcast
1:33 AM 64.4 °F 62.6 °F 94% 29.80 in 10.0 mi West 5.8 mph - N/A   Overcast
1:53 AM 64.4 °F 60.8 °F 88% 29.81 in 10.0 mi West 10.4 mph - N/A   Overcast
2:13 AM 64.4 °F 60.8 °F 88% 29.81 in 10.0 mi WNW 9.2 mph - N/A   Overcast
2:33 AM 64.4 °F 60.8 °F 88% 29.83 in 10.0 mi WNW 6.9 mph - N/A Rain Rain
2:54 AM 64.4 °F 60.8 °F 88% 29.83 in 10.0 mi NW 6.9 mph - N/A   Mostly Cloudy
3:13 AM 62.6 °F 60.8 °F 94% 29.84 in 10.0 mi West 6.9 mph - N/A   Mostly Cloudy
3:33 AM 64.4 °F 60.8 °F 88% 29.83 in 10.0 mi WNW 8.1 mph - N/A   Overcast
3:53 AM 62.6 °F 60.8 °F 94% 29.84 in 10.0 mi West 3.5 mph - N/A   Overcast
4:13 AM 62.6 °F 60.8 °F 94% 29.84 in 10.0 mi West 6.9 mph - N/A   Overcast
4:33 AM 62.6 °F 60.8 °F 94% 29.84 in 10.0 mi WNW 5.8 mph - N/A   Overcast
4:53 AM 62.6 °F 60.8 °F 94% 29.84 in 10.0 mi West 4.6 mph - N/A   Overcast
5:13 AM 62.6 °F 60.8 °F 94% 29.85 in 10.0 mi West 4.6 mph - N/A   Overcast
5:33 AM 62.6 °F 60.8 °F 94% 29.85 in 10.0 mi West 3.5 mph - N/A   Scattered Clouds
5:53 AM 60.8 °F 60.8 °F 100% 29.85 in 10.0 mi WSW 4.6 mph - N/A   Scattered Clouds
6:13 AM 60.8 °F 60.8 °F 100% 29.85 in 10.0 mi Calm Calm - N/A   Clear
6:33 AM 60.8 °F 59.0 °F 94% 29.86 in 10.0 mi Calm Calm - N/A   Scattered Clouds
6:53 AM 60.8 °F 60.8 °F 100% 29.85 in 10.0 mi WSW 3.5 mph - N/A   Scattered Clouds
7:13 AM 60.8 °F 60.8 °F 100% 29.85 in 10.0 mi WSW 4.6 mph - N/A   Clear
7:33 AM 60.8 °F 60.8 °F 100% 29.86 in 7.0 mi Calm Calm - N/A   Clear
7:53 AM 60.8 °F 60.8 °F 100% 29.86 in 10.0 mi Calm Calm - N/A   Clear
8:13 AM 62.6 °F 60.8 °F 94% 29.86 in 10.0 mi South 4.6 mph - N/A   Scattered Clouds
8:33 AM 62.6 °F 60.8 °F 94% 29.87 in 5.0 mi SSW 8.1 mph - N/A   Mostly Cloudy
8:53 AM 62.6 °F 60.8 °F 94% 29.86 in 7.0 mi SW 6.9 mph - N/A   Overcast
9:13 AM 62.6 °F 60.8 °F 94% 29.86 in 7.0 mi Calm Calm - N/A   Mostly Cloudy
9:33 AM 64.4 °F 62.6 °F 94% 29.87 in 10.0 mi South 3.5 mph - N/A   Mostly Cloudy
9:53 AM 64.4 °F 62.6 °F 94% 29.88 in 10.0 mi Calm Calm - N/A   Overcast
10:13 AM 64.4 °F 62.6 °F 94% 29.89 in 10.0 mi NW 4.6 mph - N/A   Overcast
10:33 AM 64.4 °F 62.6 °F 94% 29.89 in 10.0 mi Calm Calm - N/A   Overcast
10:53 AM 66.2 °F 62.6 °F 88% 29.90 in 10.0 mi Calm Calm - N/A   Overcast
11:13 AM 68.0 °F 62.6 °F 83% 29.90 in 10.0 mi West 3.5 mph - N/A   Overcast
11:34 AM 71.6 °F 62.6 °F 73% 29.90 in 10.0 mi SSW 4.6 mph - N/A   Overcast
11:53 AM 71.6 °F 62.6 °F 73% 29.90 in 10.0 mi West 5.8 mph - N/A   Overcast
12:13 PM 73.4 °F 62.6 °F 69% 29.90 in 10.0 mi West 3.5 mph - N/A   Scattered Clouds
12:33 PM 73.4 °F 62.6 °F 69% 29.90 in 10.0 mi WSW 3.5 mph - N/A   Clear
12:53 PM 75.2 °F 62.6 °F 65% 29.90 in 10.0 mi West 5.8 mph - N/A   Scattered Clouds
1:14 PM 77.0 °F 60.8 °F 57% 29.89 in 10.0 mi West 8.1 mph - N/A   Scattered Clouds
1:33 PM 78.8 °F 60.8 °F 54% 29.90 in 10.0 mi West 12.7 mph 18.4 mph N/A   Scattered Clouds
1:53 PM 77.0 °F 60.8 °F 57% 29.90 in 10.0 mi West 13.8 mph - N/A   Mostly Cloudy
2:14 PM 77.0 °F 59.0 °F 54% 29.91 in 10.0 mi West 13.8 mph - N/A   Scattered Clouds
2:33 PM 75.2 °F 57.2 °F 53% 29.91 in 10.0 mi West 12.7 mph - N/A   Scattered Clouds
2:53 PM 75.2 °F 57.2 °F 53% 29.91 in 10.0 mi West 15.0 mph 18.4 mph N/A   Scattered Clouds
3:14 PM 75.2 °F 57.2 °F 53% 29.92 in 10.0 mi West 15.0 mph 20.7 mph N/A   Scattered Clouds
3:33 PM 73.4 °F 59.0 °F 61% 29.92 in 10.0 mi West 15.0 mph 18.4 mph N/A   Scattered Clouds
3:53 PM 71.6 °F 59.0 °F 64% 29.93 in 10.0 mi West 18.4 mph - N/A   Scattered Clouds
4:14 PM 69.8 °F 59.0 °F 68% 29.94 in 10.0 mi West 13.8 mph - N/A   Mostly Cloudy
4:33 PM 66.2 °F 57.2 °F 73% 29.95 in 10.0 mi West 15.0 mph 20.7 mph N/A   Mostly Cloudy
4:53 PM 66.2 °F 57.2 °F 73% 29.95 in 10.0 mi WNW 16.1 mph - N/A   Mostly Cloudy
5:14 PM 68.0 °F 57.2 °F 68% 29.94 in 10.0 mi West 12.7 mph 17.3 mph N/A   Scattered Clouds
5:33 PM 66.2 °F 57.2 °F 73% 29.95 in 10.0 mi West 8.1 mph - N/A   Clear
5:53 PM 66.2 °F 57.2 °F 73% 29.94 in 10.0 mi West 8.1 mph - N/A   Clear
6:13 PM 66.2 °F 57.2 °F 73% 29.94 in 10.0 mi West 5.8 mph - N/A   Clear
6:33 PM 66.2 °F 57.2 °F 73% 29.95 in 10.0 mi West 6.9 mph - N/A   Clear
6:53 PM 66.2 °F 57.2 °F 73% 29.95 in 10.0 mi West 5.8 mph - N/A   Clear
7:13 PM 66.2 °F 57.2 °F 73% 29.95 in 10.0 mi WSW 3.5 mph - N/A   Clear
7:33 PM 64.4 °F 57.2 °F 77% 29.96 in 10.0 mi Calm Calm - N/A   Clear
7:54 PM 64.4 °F 57.2 °F 77% 29.96 in 10.0 mi SW 3.5 mph - N/A   Clear
8:13 PM 62.6 °F 57.2 °F 82% 29.97 in 10.0 mi Calm Calm - N/A   Clear
8:33 PM 60.8 °F 57.2 °F 88% 29.97 in 10.0 mi SW 3.5 mph - N/A   Clear
8:54 PM 60.8 °F 57.2 °F 88% 29.98 in 10.0 mi SW 3.5 mph - N/A   Clear
9:13 PM 60.8 °F 57.2 °F 88% 29.97 in 10.0 mi Calm Calm - N/A   Clear
9:33 PM 60.8 °F 57.2 °F 88% 29.98 in 10.0 mi SSW 3.5 mph - N/A   Clear
9:53 PM 60.8 °F 57.2 °F 88% 29.98 in 10.0 mi SW 4.6 mph - N/A   Clear
10:13 PM 60.8 °F 57.2 °F 88% 29.97 in 10.0 mi SW 3.5 mph - N/A   Clear
10:33 PM 60.8 °F 57.2 °F 88% 29.97 in 10.0 mi SW 3.5 mph - N/A   Clear
10:53 PM 60.8 °F 57.2 °F 88% 29.97 in 10.0 mi Calm Calm - N/A   Clear
11:13 PM 59.0 °F 57.2 °F 94% 29.98 in 10.0 mi SSW 4.6 mph - N/A   Clear
11:33 PM 60.8 °F 57.2 °F 88% 29.97 in 10.0 mi Calm Calm - N/A   Clear
11:53 PM 60.8 °F 57.2 °F 88% 29.97 in 10.0 mi South 4.6 mph - N/A   Clear